• In Hungary
  • List of Countries
  • For 7 days
  • Water Temperature
  • Satellite Maps
  • Weather Map
  • News
  • Weather Widgets
  • user-avatar
    Login

    Hourly Weather Cazanesti

    Today, 23 October, Tuesday

    Time Temperature Precipitation Wind Pressure Humidity
    00:00 +10°C° 0 mm 1 mps 761 mmHg 60%
    01:00 +9°C° 0 mm 1 mps 761 mmHg 61%
    02:00 +9°C° 0 mm 1 mps 760 mmHg 64%
    03:00 +9°C° 0 mm 1 mps 760 mmHg 65%
    04:00 +8°C° 0 mm 1 mps 760 mmHg 67%
    05:00 +8°C° 0 mm 1 mps 760 mmHg 68%
    06:00 +7°C° 0 mm 2 mps 760 mmHg 66%
    07:00 +8°C° 0 mm 2 mps 760 mmHg 63%
    08:00 +8°C° 0 mm 2 mps 760 mmHg 61%
    09:00 +10°C° 0 mm 2 mps 759 mmHg 56%
    10:00 +11°C° 0 mm 3 mps 759 mmHg 52%
    11:00 +13°C° 0 mm 3 mps 758 mmHg 47%
    12:00 +14°C° 0 mm 4 mps 757 mmHg 47%
    13:00 +14°C° 0 mm 4 mps 757 mmHg 46%
    14:00 +15°C° 0 mm 4 mps 756 mmHg 45%
    15:00 +14°C° 0 mm 3 mps 755 mmHg 48%
    16:00 +13°C° 0 mm 3 mps 754 mmHg 51%
    17:00 +14°C° 0 mm 2 mps 753 mmHg 53%
    18:00 +13°C° 0 mm 3 mps 752 mmHg 54%
    19:00 +12°C° 0 mm 3 mps 751 mmHg 54%
    20:00 +12°C° 0 mm 4 mps 751 mmHg 55%
    21:00 +12°C° 0.2 mm 5 mps 750 mmHg 57%
    22:00 +11°C° 0.2 mm 6 mps 749 mmHg 60%
    23:00 +11°C° 0.2 mm 7 mps 748 mmHg 62%

    Tomorrow, 24 October, Wednesday

    Time Temperature Precipitation Wind Pressure Humidity
    00:00 +11°C° 0.3 mm 7 mps 747 mmHg 61%
    01:00 +11°C° 0.3 mm 7 mps 746 mmHg 60%
    02:00 +11°C° 0.3 mm 7 mps 746 mmHg 59%
    03:00 +11°C° 0.1 mm 7 mps 745 mmHg 59%
    04:00 +11°C° 0.1 mm 7 mps 744 mmHg 58%
    05:00 +11°C° 0.1 mm 7 mps 743 mmHg 57%
    06:00 +11°C° 0.2 mm 6 mps 742 mmHg 58%
    07:00 +11°C° 0.2 mm 6 mps 741 mmHg 59%
    08:00 +11°C° 0.2 mm 6 mps 741 mmHg 60%
    09:00 +11°C° 0.9 mm 6 mps 741 mmHg 62%
    10:00 +10°C° 0.9 mm 6 mps 740 mmHg 65%
    11:00 +10°C° 0.9 mm 7 mps 740 mmHg 67%
    12:00 +10°C° 0.1 mm 7 mps 740 mmHg 59%
    13:00 +11°C° 0.1 mm 8 mps 740 mmHg 50%
    14:00 +11°C° 0.1 mm 9 mps 739 mmHg 42%
    15:00 +10°C° 0.1 mm 9 mps 740 mmHg 47%
    16:00 +8°C° 0.1 mm 10 mps 740 mmHg 52%
    17:00 +7°C° 0.1 mm 10 mps 741 mmHg 57%
    18:00 +6°C° 0.1 mm 10 mps 742 mmHg 55%
    19:00 +6°C° 0.1 mm 10 mps 742 mmHg 54%
    20:00 +5°C° 0.1 mm 10 mps 743 mmHg 52%
    21:00 +5°C° 0 mm 10 mps 743 mmHg 55%
    22:00 +3°C° 0 mm 9 mps 743 mmHg 58%
    23:00 +3°C° 0 mm 9 mps 743 mmHg 62%

    Day after tomorrow, 25 October, Thursday

    Time Temperature Precipitation Wind Pressure Humidity
    00:00 +3°C° 0.1 mm 10 mps 743 mmHg 61%
    01:00 +5°C° 0.1 mm 10 mps 744 mmHg 61%
    02:00 +4°C° 0.1 mm 11 mps 744 mmHg 61%
    03:00 +4°C° 0.1 mm 11 mps 744 mmHg 62%
    04:00 +4°C° 0.1 mm 11 mps 744 mmHg 63%
    05:00 +4°C° 0.1 mm 11 mps 745 mmHg 64%
    06:00 +4°C° 0.1 mm 11 mps 746 mmHg 64%
    07:00 +4°C° 0.1 mm 11 mps 747 mmHg 63%
    08:00 +4°C° 0.1 mm 11 mps 747 mmHg 63%
    09:00 +6°C° 0 mm 11 mps 748 mmHg 60%
    10:00 +6°C° 0 mm 10 mps 749 mmHg 58%
    11:00 +6°C° 0 mm 10 mps 749 mmHg 55%
    12:00 +7°C° 0 mm 9 mps 749 mmHg 53%
    13:00 +7°C° 0 mm 9 mps 749 mmHg 50%
    14:00 +7°C° 0 mm 8 mps 749 mmHg 47%
    15:00 +8°C° 0 mm 7 mps 749 mmHg 47%
    16:00 +8°C° 0 mm 5 mps 749 mmHg 46%
    17:00 +8°C° 0 mm 3 mps 749 mmHg 46%
    18:00 +8°C° 0.1 mm 3 mps 749 mmHg 47%
    19:00 +7°C° 0.1 mm 4 mps 749 mmHg 48%
    20:00 +7°C° 0.1 mm 4 mps 749 mmHg 49%
    21:00 +7°C° 0.5 mm 4 mps 748 mmHg 55%
    22:00 +7°C° 0.5 mm 5 mps 748 mmHg 60%
    23:00 +7°C° 0.5 mm 6 mps 747 mmHg 66%

    26 October, Friday

    Time Temperature Precipitation Wind Pressure Humidity
    00:00 +8°C° 0.1 mm 6 mps 747 mmHg 68%
    01:00 +8°C° 0.1 mm 7 mps 747 mmHg 69%
    02:00 +8°C° 0.1 mm 7 mps 747 mmHg 71%
    03:00 +8°C° 0 mm 7 mps 748 mmHg 72%
    04:00 +6°C° 0 mm 7 mps 749 mmHg 72%
    05:00 +6°C° 0 mm 7 mps 749 mmHg 73%
    06:00 +6°C° 0 mm 7 mps 750 mmHg 72%
    07:00 +6°C° 0 mm 7 mps 751 mmHg 70%
    08:00 +6°C° 0 mm 7 mps 752 mmHg 69%
    09:00 +8°C° 0 mm 7 mps 752 mmHg 64%
    10:00 +9°C° 0 mm 7 mps 753 mmHg 60%
    11:00 +10°C° 0 mm 7 mps 753 mmHg 55%
    12:00 +11°C° 0 mm 7 mps 753 mmHg 53%
    13:00 +11°C° 0 mm 6 mps 753 mmHg 51%
    14:00 +13°C° 0 mm 6 mps 754 mmHg 49%
    15:00 +12°C° 0 mm 5 mps 754 mmHg 51%
    16:00 +11°C° 0 mm 3 mps 754 mmHg 54%
    17:00 +12°C° 0 mm 2 mps 755 mmHg 56%
    18:00 +10°C° 0 mm 2 mps 755 mmHg 58%
    19:00 +11°C° 0 mm 1 mps 755 mmHg 60%
    20:00 +10°C° 0 mm 1 mps 756 mmHg 62%
    21:00 +10°C° 0 mm 1 mps 756 mmHg 62%
    22:00 +9°C° 0 mm 2 mps 756 mmHg 62%
    23:00 +9°C° 0 mm 2 mps 756 mmHg 62%

    27 October, Saturday

    Time Temperature Precipitation Wind Pressure Humidity
    00:00 +9°C° 0 mm 2 mps 756 mmHg 63%
    01:00 +9°C° 0 mm 3 mps 756 mmHg 64%
    02:00 +9°C° 0 mm 3 mps 756 mmHg 64%
    03:00 +8°C° 0 mm 3 mps 756 mmHg 67%
    04:00 +8°C° 0 mm 3 mps 755 mmHg 70%
    05:00 +8°C° 0 mm 3 mps 755 mmHg 73%
    06:00 +8°C° 0 mm 3 mps 755 mmHg 72%
    07:00 +9°C° 0 mm 3 mps 755 mmHg 71%
    08:00 +9°C° 0 mm 3 mps 754 mmHg 70%
    09:00 +11°C° 0 mm 4 mps 754 mmHg 64%
    10:00 +13°C° 0 mm 4 mps 754 mmHg 58%
    11:00 +15°C° 0 mm 5 mps 753 mmHg 52%
    12:00 +16°C° 0 mm 5 mps 753 mmHg 51%
    13:00 +17°C° 0 mm 5 mps 752 mmHg 50%
    14:00 +17°C° 0 mm 5 mps 752 mmHg 49%
    15:00 +18°C° 0 mm 4 mps 752 mmHg 50%
    16:00 +18°C° 0 mm 4 mps 752 mmHg 51%
    17:00 +18°C° 0 mm 3 mps 751 mmHg 52%
    18:00 +17°C° 0 mm 3 mps 751 mmHg 53%
    19:00 +17°C° 0 mm 3 mps 752 mmHg 53%
    20:00 +17°C° 0 mm 3 mps 752 mmHg 54%
    21:00 +16°C° 0 mm 3 mps 752 mmHg 56%
    22:00 +16°C° 0 mm 3 mps 752 mmHg 57%
    23:00 +14°C° 0 mm 3 mps 752 mmHg 59%

    28 October, Sunday

    Time Temperature Precipitation Wind Pressure Humidity
    00:00 +14°C° 0 mm 3 mps 752 mmHg 60%
    01:00 +14°C° 0 mm 3 mps 752 mmHg 61%
    02:00 +14°C° 0 mm 3 mps 752 mmHg 62%
    03:00 +14°C° 0 mm 3 mps 752 mmHg 63%
    04:00 +13°C° 0 mm 3 mps 752 mmHg 64%
    05:00 +13°C° 0 mm 3 mps 752 mmHg 64%
    06:00 +14°C° 0 mm 3 mps 752 mmHg 63%
    07:00 +14°C° 0 mm 3 mps 753 mmHg 62%
    08:00 +14°C° 0 mm 3 mps 753 mmHg 62%
    09:00 +17°C° 0 mm 3 mps 753 mmHg 55%
    10:00 +20°C° 0 mm 3 mps 753 mmHg 48%
    11:00 +22°C° 0 mm 4 mps 753 mmHg 42%
    12:00 +23°C° 0 mm 4 mps 752 mmHg 40%
    13:00 +25°C° 0 mm 5 mps 752 mmHg 38%
    14:00 +25°C° 0 mm 5 mps 752 mmHg 36%
    15:00 +23°C° 0 mm 5 mps 752 mmHg 39%
    16:00 +22°C° 0 mm 4 mps 752 mmHg 42%
    17:00 +21°C° 0 mm 3 mps 752 mmHg 45%
    18:00 +20°C° 0 mm 4 mps 752 mmHg 47%
    19:00 +20°C° 0 mm 4 mps 752 mmHg 49%
    20:00 +19°C° 0 mm 4 mps 752 mmHg 51%
    21:00 +19°C° 0 mm 4 mps 752 mmHg 54%
    22:00 +18°C° 0 mm 4 mps 752 mmHg 58%
    23:00 +17°C° 0 mm 4 mps 752 mmHg 62%

    29 October, Monday

    Time Temperature Precipitation Wind Pressure Humidity
    00:00 +17°C° 0 mm 4 mps 752 mmHg 69%
    01:00 +15°C° 0 mm 4 mps 752 mmHg 76%
    02:00 +15°C° 0 mm 4 mps 752 mmHg 83%
    03:00 +15°C° 0 mm 5 mps 752 mmHg 86%
    04:00 +14°C° 0 mm 5 mps 751 mmHg 89%
    05:00 +14°C° 0 mm 5 mps 751 mmHg 92%
    06:00 +14°C° 0 mm 6 mps 751 mmHg 88%
    07:00 +14°C° 0 mm 6 mps 751 mmHg 85%
    08:00 +15°C° 0 mm 7 mps 751 mmHg 81%
    09:00 +17°C° 0 mm 8 mps 750 mmHg 69%
    10:00 +19°C° 0 mm 9 mps 750 mmHg 58%
    11:00 +21°C° 0 mm 10 mps 750 mmHg 46%
    12:00 +22°C° 0 mm 10 mps 750 mmHg 41%
    13:00 +23°C° 0 mm 10 mps 749 mmHg 36%
    14:00 +24°C° 0 mm 11 mps 749 mmHg 30%
    15:00 +23°C° 0 mm 10 mps 748 mmHg 32%
    16:00 +22°C° 0 mm 9 mps 748 mmHg 34%
    17:00 +21°C° 0 mm 7 mps 748 mmHg 35%
    18:00 +21°C° 0 mm 8 mps 748 mmHg 38%
    19:00 +20°C° 0 mm 8 mps 748 mmHg 41%
    20:00 +20°C° 0 mm 8 mps 749 mmHg 44%
    21:00 +18°C° 0 mm 8 mps 749 mmHg 48%
    22:00 +18°C° 0 mm 8 mps 749 mmHg 52%
    23:00 +18°C° 0 mm 8 mps 749 mmHg 56%
    Show more